Location: Gugi
(45.4667°N, 11.1000°E)
Time: 08:46:55
(UTC+00:00)

Cosmos 2112 Rocket - Pass Details

Date: 17 November 2019
Orbit: 755 x 788 km, 74.1° (Epoch: 07 December)

Event Time Altitude Azimuth Distance (km) Brightness Sun altitude
Rises 17:23:06 0° 193° (SSW) 3,198 7.5 -17.3°
Reaches altitude 10° 17:25:27 10° 192° (SSW) 2,279 6.7 -17.7°
Maximum altitude 17:30:36 72° 108° (ESE) 800 3.9 -18.6°
Enters shadow 17:34:26 19° 27° (NNE) 1,788 5.6 -19.3°
